• In Uzbekistan
  • List of Countries
  • For 7 days
  • Water Temperature
  • Satellite Maps
  • Weather Map
  • Weather Widgets
  • user-avatar
    Login

    Hourly Weather Naryn

    Today, 21 September, Friday

    Time Temperature Precipitation Wind Pressure Humidity
    00:00 +10°C° 0.1 mm 1 mps 569 mmHg 58%
    01:00 +10°C° 0.1 mm 1 mps 569 mmHg 59%
    02:00 +9°C° 0.1 mm 1 mps 569 mmHg 61%
    03:00 +9°C° 0 mm 1 mps 568 mmHg 61%
    04:00 +8°C° 0 mm 1 mps 568 mmHg 60%
    05:00 +7°C° 0 mm 2 mps 568 mmHg 60%
    06:00 +8°C° 0 mm 2 mps 569 mmHg 56%
    07:00 +10°C° 0 mm 2 mps 570 mmHg 51%
    08:00 +12°C° 0 mm 2 mps 570 mmHg 47%
    09:00 +13°C° 0 mm 2 mps 571 mmHg 44%
    10:00 +13°C° 0 mm 3 mps 571 mmHg 41%
    11:00 +14°C° 0 mm 3 mps 572 mmHg 38%
    12:00 +16°C° 0 mm 3 mps 572 mmHg 38%
    13:00 +15°C° 0 mm 4 mps 572 mmHg 37%
    14:00 +15°C° 0 mm 4 mps 572 mmHg 36%
    15:00 +16°C° 0.1 mm 3 mps 572 mmHg 39%
    16:00 +14°C° 0.1 mm 3 mps 572 mmHg 42%
    17:00 +13°C° 0.1 mm 3 mps 571 mmHg 45%
    18:00 +13°C° 0.2 mm 2 mps 571 mmHg 50%
    19:00 +10°C° 0.2 mm 2 mps 571 mmHg 55%
    20:00 +10°C° 0.2 mm 1 mps 571 mmHg 61%
    21:00 +10°C° 0.2 mm 1 mps 571 mmHg 63%
    22:00 +9°C° 0.2 mm 1 mps 570 mmHg 65%
    23:00 +9°C° 0.2 mm 1 mps 570 mmHg 67%

    Tomorrow, 22 September, Saturday

    Time Temperature Precipitation Wind Pressure Humidity
    00:00 +9°C° 0 mm 1 mps 570 mmHg 66%
    01:00 +8°C° 0 mm 1 mps 570 mmHg 65%
    02:00 +8°C° 0 mm 1 mps 569 mmHg 64%
    03:00 +7°C° 0 mm 2 mps 569 mmHg 64%
    04:00 +6°C° 0 mm 2 mps 569 mmHg 63%
    05:00 +6°C° 0 mm 2 mps 569 mmHg 62%
    06:00 +8°C° 0 mm 2 mps 570 mmHg 57%
    07:00 +10°C° 0 mm 1 mps 570 mmHg 53%
    08:00 +12°C° 0 mm 1 mps 571 mmHg 48%
    09:00 +13°C° 0 mm 2 mps 572 mmHg 45%
    10:00 +14°C° 0 mm 2 mps 572 mmHg 42%
    11:00 +16°C° 0 mm 2 mps 573 mmHg 39%
    12:00 +16°C° 0 mm 2 mps 573 mmHg 36%
    13:00 +17°C° 0 mm 3 mps 572 mmHg 33%
    14:00 +18°C° 0 mm 3 mps 572 mmHg 30%
    15:00 +17°C° 0 mm 3 mps 572 mmHg 32%
    16:00 +16°C° 0 mm 2 mps 572 mmHg 34%
    17:00 +16°C° 0 mm 2 mps 571 mmHg 36%
    18:00 +14°C° 0 mm 2 mps 571 mmHg 40%
    19:00 +12°C° 0 mm 2 mps 571 mmHg 45%
    20:00 +11°C° 0 mm 1 mps 570 mmHg 49%
    21:00 +11°C° 0 mm 1 mps 570 mmHg 50%
    22:00 +10°C° 0 mm 1 mps 570 mmHg 51%
    23:00 +10°C° 0 mm 1 mps 570 mmHg 53%

    Day after tomorrow, 23 September, Sunday

    Time Temperature Precipitation Wind Pressure Humidity
    00:00 +9°C° 0 mm 1 mps 569 mmHg 54%
    01:00 +9°C° 0 mm 1 mps 569 mmHg 56%
    02:00 +8°C° 0 mm 1 mps 569 mmHg 58%
    03:00 +8°C° 0 mm 1 mps 568 mmHg 59%
    04:00 +7°C° 0 mm 1 mps 568 mmHg 61%
    05:00 +7°C° 0 mm 1 mps 568 mmHg 62%
    06:00 +8°C° 0 mm 1 mps 569 mmHg 57%
    07:00 +10°C° 0 mm 1 mps 569 mmHg 51%
    08:00 +11°C° 0 mm 1 mps 570 mmHg 46%
    09:00 +12°C° 0 mm 1 mps 570 mmHg 43%
    10:00 +13°C° 0 mm 1 mps 571 mmHg 40%
    11:00 +14°C° 0 mm 2 mps 571 mmHg 36%
    12:00 +15°C° 0.1 mm 2 mps 571 mmHg 36%
    13:00 +16°C° 0.1 mm 3 mps 570 mmHg 35%
    14:00 +16°C° 0.1 mm 3 mps 570 mmHg 35%
    15:00 +14°C° 0.2 mm 3 mps 570 mmHg 38%
    16:00 +13°C° 0.2 mm 3 mps 570 mmHg 42%
    17:00 +13°C° 0.2 mm 3 mps 569 mmHg 45%
    18:00 +12°C° 0.4 mm 3 mps 569 mmHg 51%
    19:00 +10°C° 0.4 mm 3 mps 569 mmHg 56%
    20:00 +9°C° 0.4 mm 2 mps 569 mmHg 62%
    21:00 +9°C° 1.2 mm 2 mps 569 mmHg 68%
    22:00 +8°C° 1.2 mm 2 mps 568 mmHg 73%
    23:00 +7°C° 1.2 mm 2 mps 568 mmHg 78%

    24 September, Monday

    Time Temperature Precipitation Wind Pressure Humidity
    00:00 +7°C° 1 mm 2 mps 568 mmHg 81%
    01:00 +6°C° 1 mm 2 mps 567 mmHg 84%
    02:00 +6°C° 1 mm 2 mps 567 mmHg 87%
    03:00 +5°C° 0.5 mm 2 mps 567 mmHg 87%
    04:00 +5°C° 0.5 mm 2 mps 567 mmHg 88%
    05:00 +5°C° 0.5 mm 2 mps 567 mmHg 89%
    06:00 +5°C° 0 mm 2 mps 567 mmHg 84%
    07:00 +6°C° 0 mm 1 mps 567 mmHg 79%
    08:00 +7°C° 0 mm 1 mps 567 mmHg 74%
    09:00 +7°C° 0 mm 1 mps 567 mmHg 70%
    10:00 +7°C° 0 mm 2 mps 568 mmHg 65%
    11:00 +8°C° 0 mm 2 mps 568 mmHg 61%
    12:00 +9°C° 0 mm 2 mps 568 mmHg 59%
    13:00 +9°C° 0 mm 2 mps 568 mmHg 57%
    14:00 +10°C° 0 mm 3 mps 568 mmHg 55%
    15:00 +10°C° 0 mm 2 mps 568 mmHg 53%
    16:00 +9°C° 0 mm 2 mps 567 mmHg 51%
    17:00 +9°C° 0 mm 2 mps 567 mmHg 50%
    18:00 +7°C° 0 mm 2 mps 567 mmHg 52%
    19:00 +7°C° 0 mm 1 mps 567 mmHg 55%
    20:00 +5°C° 0 mm 1 mps 566 mmHg 58%
    21:00 +5°C° 0 mm 1 mps 566 mmHg 57%
    22:00 +4°C° 0 mm 1 mps 566 mmHg 57%
    23:00 +4°C° 0 mm 1 mps 566 mmHg 56%

    25 September, Tuesday

    Time Temperature Precipitation Wind Pressure Humidity
    00:00 +3°C° 0 mm 1 mps 565 mmHg 55%
    01:00 +3°C° 0 mm 1 mps 565 mmHg 54%
    02:00 +3°C° 0 mm 1 mps 565 mmHg 54%
    03:00 +3°C° 0 mm 1 mps 565 mmHg 53%
    04:00 +2°C° 0 mm 1 mps 565 mmHg 52%
    05:00 +2°C° 0 mm 1 mps 565 mmHg 52%
    06:00 +4°C° 0 mm 1 mps 566 mmHg 49%
    07:00 +5°C° 0 mm 1 mps 566 mmHg 45%
    08:00 +7°C° 0 mm 1 mps 567 mmHg 42%
    09:00 +8°C° 0 mm 1 mps 568 mmHg 40%
    10:00 +9°C° 0 mm 1 mps 568 mmHg 38%
    11:00 +10°C° 0 mm 2 mps 568 mmHg 36%
    12:00 +10°C° 0 mm 2 mps 569 mmHg 35%
    13:00 +12°C° 0 mm 2 mps 569 mmHg 33%
    14:00 +12°C° 0 mm 2 mps 569 mmHg 32%
    15:00 +12°C° 0 mm 2 mps 568 mmHg 32%
    16:00 +10°C° 0 mm 2 mps 568 mmHg 32%
    17:00 +9°C° 0 mm 2 mps 568 mmHg 33%
    18:00 +9°C° 0 mm 1 mps 568 mmHg 34%
    19:00 +7°C° 0 mm 1 mps 567 mmHg 35%
    20:00 +6°C° 0 mm 1 mps 567 mmHg 36%
    21:00 +5°C° 0 mm 1 mps 567 mmHg 36%
    22:00 +5°C° 0 mm 1 mps 567 mmHg 35%
    23:00 +5°C° 0 mm 1 mps 567 mmHg 35%

    26 September, Wednesday

    Time Temperature Precipitation Wind Pressure Humidity
    00:00 +5°C° 0 mm 1 mps 567 mmHg 35%
    01:00 +5°C° 0 mm 1 mps 566 mmHg 36%
    02:00 +5°C° 0 mm 1 mps 566 mmHg 36%
    03:00 +5°C° 0 mm 1 mps 567 mmHg 37%
    04:00 +5°C° 0 mm 1 mps 567 mmHg 38%
    05:00 +5°C° 0 mm 1 mps 567 mmHg 39%
    06:00 +6°C° 0 mm 1 mps 568 mmHg 38%
    07:00 +7°C° 0 mm 1 mps 569 mmHg 37%
    08:00 +9°C° 0 mm 1 mps 570 mmHg 36%
    09:00 +10°C° 0 mm 1 mps 570 mmHg 37%
    10:00 +11°C° 0 mm 1 mps 570 mmHg 38%
    11:00 +12°C° 0 mm 1 mps 571 mmHg 39%
    12:00 +13°C° 0 mm 1 mps 571 mmHg 39%
    13:00 +13°C° 0 mm 1 mps 571 mmHg 40%
    14:00 +14°C° 0 mm 2 mps 571 mmHg 40%
    15:00 +13°C° 0 mm 1 mps 571 mmHg 40%
    16:00 +13°C° 0 mm 1 mps 571 mmHg 40%
    17:00 +12°C° 0 mm 1 mps 571 mmHg 40%
    18:00 +11°C° 0 mm 1 mps 570 mmHg 42%
    19:00 +9°C° 0 mm 2 mps 570 mmHg 44%
    20:00 +7°C° 0 mm 2 mps 569 mmHg 46%
    21:00 +7°C° 0 mm 2 mps 569 mmHg 46%
    22:00 +7°C° 0 mm 3 mps 569 mmHg 47%
    23:00 +5°C° 0 mm 3 mps 569 mmHg 47%
    Show more